Location: Goettingen
(51.5300°N, 9.9433°E)
Time: 20:41:14
(UTC+02:00)

ISS - Pass Details

Date: 22 September 2021
Orbit: 419 x 423 km, 51.6° (Epoch: 20 September)

Event Time Altitude Azimuth Distance (km) Brightness Sun altitude
Rises 20:56:21 0° 257° (WSW) 2,363 1.0 -15.8°
Reaches altitude 10° 20:58:27 10° 257° (WSW) 1,501 -0.1 -16.1°
Maximum altitude 21:01:49 83° 171° (S) 428 -3.9 -16.6°
Enters shadow 21:02:48 43° 86° (E) 600 -3.4 -16.7°
